{"data":{"norad_id":58487,"epoch":"2026-09-20T16:01:07.591872Z","epoch_age_seconds":132246,"freshness":"FRESH","line1":"1 58487U 23186Q   26263.66744898  .00000210  00000+0  17175-4 0  9990","line2":"2 58487  43.0025  42.6757 0001337 268.1754  91.8944 15.27577466155709","mean_motion":15.27577466,"eccentricity":0.0001337,"inclination_deg":43.0025,"raan_deg":42.6757,"arg_perigee_deg":268.1754,"mean_anomaly_deg":91.8944,"bstar":1.7175e-5,"rev_number":15570,"period_min":94.266905086698,"perigee_km":482.13934216223,"apogee_km":483.97402535326,"semimajor_km":6861.1936837577,"source":"CELESTRAK","updated_at":"2026-09-21T09:00:33.883010Z"}}